Location: Banios
(43.0451°N, 0.2335°E)
Time: 12:12:14
(UTC+00:00)

A-11 Canister half - Pass Details

Date: 12 May 2021
Orbit: 1513 x 1686 km, 47.2° (Epoch: 14 June)

Event Time Altitude Azimuth Distance (km) Brightness Sun altitude
Rises 19:58:26 0° 292° (WNW) 4,663 13.5 -8.0°
Reaches altitude 10° 20:01:27 10° 292° (WNW) 3,687 12.5 -8.5°
Maximum altitude 20:10:46 83° 207° (SSW) 1,560 9.0 -9.9°
Enters shadow 20:19:36 13° 121° (ESE) 3,548 10.2 -11.1°
Drops below altitude 10° 20:20:21 10° 121° (ESE) 3,787 - -11.2°
Sets 20:23:28 0° 120° (ESE) 4,794 - -11.7°
